Tracking 25686 objects as of 25-May-2022
HD Live streaming from Space Station
objects crossing your sky now

SL-14 DEB

Track SL-14 DEB now!
10-day predictions


NORAD ID: 25999
Int'l Code: 1991-068J
Perigee: 1,375.5 km
Apogee: 1,471.5 km
Inclination: 82.7 °
Period: 114.1 minutes
Semi major axis: 7794 km
RCS: 0.0764 m2 (small)
Launch date: September 28, 1991
Source: Commonwealth of Independent States (former USSR) (CIS)
Launch site: PLESETSK MISSILE AND SPACE COMPLEX (PKMTR)

Note: This is SATELLITE DEBRIS
aabbcc
Your satellite tracking list
Your tracking list is empty




NASA's NSSDC Master Catalog

Two Line Element Set (TLE):
1 25999U 91068J   22145.47783891  .00000136  00000-0  70079-3 0  9995
2 25999  82.6956 319.6777 0061609 182.4581 242.9411 12.61599025 41337
Source of the keplerian elements: AFSPC